Wind_Speed
27 24 19 21 22 21 21 22 20 20 23 19 22 24 20 20 19 18 18 19 20 17 12 9 8 8 10 9 12 12 14 15 17 16 17 18 19 20 21 25 28 31 31 30
25 22 22 24 24 23 26 25 25 25 30 23 25 21 19 16 16 18 19 21 17 17 9 6 8 10 12 14 14 13 14 15 16 16 17 20 19 23 24 25 25 28 30 29
19 15 17 19 24 27 28 27 26 25 26 22 18 17 16 16 18 20 17 16 18 15 8 9 11 12 14 16 17 16 15 15 15 15 13 17 21 23 23 26 27 28 27 27
7 6 13 14 13 11 17 21 21 20 19 18 17 14 14 15 20 14 16 17 17 14 14 15 9 12 12 15 16 15 15 13 12 11 12 12 15 21 22 24 24 26 27 27
6 13 19 16 10 13 10 15 14 16 15 13 12 15 15 13 9 12 15 17 18 22 23 18 10 9 12 14 16 17 14 10 9 9 10 10 11 12 16 20 23 23 24 26
6 7 11 5 9 4 3 13 14 10 10 10 11 13 12 10 12 16 17 18 23 23 26 26 12 7 11 10 13 13 10 8 9 6 7 7 8 11 16 20 22 21 23 26
14 9 9 12 13 5 6 4 4 2 7 10 12 13 16 10 15 14 16 19 20 23 26 27 10 5 4 7 7 8 8 7 5 4 4 6 10 13 18 21 24 25 25 25
12 9 14 8 8 8 2 1 5 10 12 15 14 17 16 17 17 16 12 17 17 20 28 31 10 4 1 6 8 7 4 3 2 3 4 6 8 10 15 19 21 22 23 22
8 6 4 1 5 0 5 12 15 19 19 17 19 19 18 18 17 17 12 15 15 19 29 21 7 4 4 3 2 2 1 2 3 5 4 6 9 12 13 16 16 16 17 17
5 12 13 11 12 12 13 16 17 16 17 17 17 18 20 17 16 15 13 9 11 21 27 22 7 6 3 4 4 2 4 6 5 5 5 8 10 11 13 15 15 15 15 16
14 16 15 16 16 15 13 12 14 16 17 17 17 19 18 16 17 16 17 14 13 20 26 17 7 9 8 7 6 3 3 5 7 8 8 7 7 11 14 16 18 18 19 19
9 10 12 14 12 12 14 15 17 17 18 18 18 18 17 16 16 17 18 16 16 16 23 21 11 10 9 8 8 6 4 5 7 9 9 9 8 8 10 12 15 17 21 24
13 12 12 13 15 16 17 18 18 18 16 16 16 16 13 14 18 23 23 23 16 10 26 12 5 4 7 7 8 6 4 5 6 9 12 11 12 11 9 8 11 14 15 21
9 11 14 16 12 14 18 20 20 19 18 15 14 14 11 11 17 20 19 14 11 12 4 7 6 5 7 6 6 7 5 5 5 6 10 13 14 13 12 13 12 15 15 17
9 10 10 6 7 8 10 10 10 11 11 12 13 9 8 8 10 17 15 11 9 9 6 8 4 4 4 6 6 6 5 4 4 5 5 9 11 12 14 13 12 13 16 16
10 8 7 5 6 9 9 9 9 9 9 10 10 11 12 14 17 16 12 9 9 6 2 2 1 1 4 5 5 4 4 5 4 4 4 5 7 9 11 12 12 13 15 18
6 2 3 4 5 7 8 8 9 9 9 9 10 14 14 15 17 15 10 6 6 3 2 2 1 2 3 5 4 5 5 5 4 3 3 3 4 6 7 9 10 12 14 19
2 6 8 6 7 8 8 8 8 10 10 13 14 14 13 11 9 12 8 5 3 3 2 2 2 1 2 3 3 3 4 4 3 3 3 2 2 3 4 5 6 7 10 14
4 7 9 7 7 8 9 9 10 11 12 12 12 11 13 11 10 7 5 5 5 5 2 1 3 2 2 1 3 4 5 5 5 5 5 5 5 5 6 6 6 6 7 8
2 5 7 9 10 11 10 12 13 12 13 10 11 12 7 5 3 2 4 3 4 4 3 3 2 4 4 4 4 6 7 7 8 9 9 10 10 11 11 12 11 10 8 8
4 5 6 7 9 13 12 13 11 11 12 10 9 9 6 2 2 3 5 3 2 2 4 4 3 4 5 6 9 11 12 13 12 11 11 13 13 14 15 15 16 16 16 15
5 5 6 9 10 11 11 11 11 12 11 11 9 7 5 4 4 2 5 3 4 4 5 6 5 7 8 10 10 12 12 12 11 11 12 12 13 14 14 14 14 14 15 15
7 8 10 7 9 13 13 12 13 12 12 10 9 8 9 6 4 5 5 4 5 6 6 7 9 11 12 11 11 12 13 13 12 12 12 13 13 13 13 12 12 12 11 11
8 9 11 13 15 15 11 13 10 10 10 10 9 8 7 7 4 4 8 9 9 9 8 8 10 13 12 12 12 13 13 13 12 12 13 13 13 12 12 11 11 11 11 11
9 13 14 12 11 10 15 14 14 10 8 9 4 4 2 2 5 9 8 9 10 10 11 13 14 14 13 13 12 12 12 13 12 12 12 12 12 12 12 12 11 11 11 11
13 12 15 15 16 17 16 16 14 13 10 9 8 5 5 6 10 11 10 11 11 11 11 10 11 13 13 13 13 13 13 12 12 12 12 12 12 12 12 11 11 10 10 10
13 13 15 15 16 16 14 17 17 15 13 13 11 9 9 9 10 11 11 11 11 11 12 12 12 13 13 13 13 13 13 13 13 12 12 12 11 12 11 11 10 10 10 10
Wind_Direction
256 264 260 263 253 252 255 251 245 266 269 281 290 285 296 303 299 296 302 307 306 301 296 293 268 277 275 273 279 272 277 274 267 256 248 230 213 204 201 190 188 192 188 184
261 257 257 264 255 253 244 247 255 261 266 264 267 280 288 294 305 302 312 300 304 294 287 281 274 282 293 283 282 278 272 272 270 257 240 232 218 205 200 195 188 190 191 188
261 257 253 257 250 249 251 247 245 249 257 266 281 285 298 305 303 303 306 327 338 324 293 285 292 305 296 302 293 279 268 269 271 271 251 214 216 209 202 195 187 189 189 190
265 252 245 257 243 262 245 247 249 258 262 270 278 304 296 307 299 330 328 322 311 302 291 282 289 297 309 311 304 292 276 274 277 271 260 239 208 205 205 188 189 183 192 195
226 225 256 260 213 221 222 249 251 260 268 277 287 285 283 278 355 330 316 294 295 300 298 278 279 304 307 307 319 310 302 286 294 276 258 237 220 204 207 182 181 189 188 182
201 237 249 105 65 77 45 261 261 225 249 267 277 274 282 351 331 315 317 304 302 297 300 273 271 298 303 328 314 304 325 311 278 257 241 213 197 201 191 187 181 180 182 178
226 243 255 267 146 134 224 312 79 227 249 265 272 283 304 298 279 294 299 308 302 295 291 261 266 284 313 323 298 296 288 282 254 242 201 187 175 181 183 176 177 175 173 176
225 240 250 156 145 215 328 27 257 264 268 271 284 289 290 288 291 290 287 305 295 304 297 287 261 278 178 291 322 311 297 269 243 176 152 163 171 177 178 178 168 168 172 178
207 229 118 191 253 166 267 272 279 283 284 298 292 283 287 283 285 289 292 300 288 295 287 266 241 258 230 245 288 11 130 96 103 130 143 177 171 164 169 178 167 165 166 165
237 243 245 238 250 283 299 284 286 289 292 289 289 284 282 288 290 292 290 276 305 300 291 265 210 219 206 165 170 166 122 141 155 128 144 168 174 176 169 173 171 171 171 170
249 262 279 278 281 284 291 292 287 287 286 284 287 286 289 287 288 290 285 262 260 279 284 265 228 215 201 199 195 188 163 156 160 163 171 192 203 201 199 197 192 181 182 175
246 267 276 282 288 301 298 290 288 289 289 287 282 283 289 290 292 302 300 294 259 271 281 263 228 225 216 215 218 219 193 181 177 177 184 192 204 208 215 224 212 206 199 193
266 272 283 294 296 288 281 280 281 277 282 291 290 284 323 319 315 310 294 287 272 251 258 263 275 302 212 208 216 220 208 181 179 184 189 188 195 195 175 191 207 208 204 205
277 275 274 273 296 329 317 304 299 288 286 291 313 320 327 317 310 297 300 337 324 271 230 247 236 233 167 163 201 194 174 183 177 185 200 209 209 202 194 179 179 192 201 202
294 293 305 352 333 332 322 311 303 288 304 320 319 315 310 315 313 306 314 312 305 286 278 267 212 125 183 196 192 181 185 178 178 166 195 212 225 219 210 199 192 185 190 194
307 308 294 313 309 319 322 315 307 300 299 302 303 306 312 303 295 296 299 306 294 287 340 325 69 273 217 198 199 162 164 169 162 157 174 189 206 208 211 212 202 190 187 191
310 295 315 305 325 322 320 305 298 304 307 309 317 319 317 307 297 287 280 291 290 271 234 207 191 210 197 186 169 168 168 162 160 150 158 195 211 213 212 213 211 206 199 196
344 308 302 305 314 313 311 312 313 310 310 317 318 313 298 288 282 283 258 243 240 246 252 228 175 123 131 143 146 160 165 151 152 154 147 167 182 180 183 192 197 201 200 203
335 312 316 314 310 309 310 311 320 318 313 310 306 297 296 298 294 274 216 209 223 224 236 262 160 106 69 146 155 156 150 144 140 126 126 134 128 118 121 128 130 140 155 176
327 317 324 329 325 319 315 306 306 300 299 298 299 293 295 316 306 203 177 99 43 89 137 149 115 110 106 98 113 115 127 125 117 110 110 108 106 102 100 101 103 106 113 129
281 302 317 308 299 300 289 285 283 286 294 293 289 299 298 277 170 174 198 181 96 118 124 129 121 99 90 88 89 101 103 98 92 94 95 95 92 90 91 92 90 90 92 95
273 256 243 267 284 287 289 291 283 282 283 283 281 268 237 210 170 103 48 93 130 118 106 87 79 105 106 94 89 88 88 85 83 83 79 79 82 81 75 77 75 73 74 74
289 299 298 308 287 297 305 289 275 276 277 277 272 255 234 218 212 202 158 116 122 108 100 87 102 111 102 94 90 88 86 83 79 78 76 73 74 75 75 74 72 71 71 71
298 305 303 300 296 291 293 303 301 266 262 270 264 250 227 184 141 103 103 114 115 111 98 96 99 103 97 93 89 89 90 88 88 88 84 85 82 80 78 76 77 75 72 69
306 294 289 282 295 296 302 301 289 259 252 255 236 215 193 184 171 137 128 122 115 108 100 92 94 93 92 93 95 93 88 83 87 91 87 86 86 84 81 79 75 75 74 70
292 294 296 294 287 294 296 287 275 271 220 208 194 175 133 121 124 127 124 121 113 106 99 89 89 92 93 95 95 92 91 89 87 87 89 87 87 85 82 80 75 72 71 70
294 294 291 296 295 294 299 302 300 277 243 205 184 164 153 141 133 130 127 119 112 104 99 93 87 90 94 95 93 92 90 87 90 90 87 86 84 82 80 78 76 73 71 70
Height
740 738 741 740 739 740 737 730 737 731 729 726 728 724 719 719 720 720 719 718 716 713 712 714 716 717 717 715 715 714 713 712 711 711 713 713 716 717 721 723 726 733 740 744
744 743 739 739 732 734 733 734 733 733 725 727 718 715 716 716 717 718 719 716 714 711 710 714 714 715 713 713 709 708 709 707 706 706 707 709 710 712 716 721 725 731 736 740
741 734 740 740 728 721 717 716 720 722 717 711 712 714 714 717 718 717 715 716 716 713 712 712 712 712 711 709 707 705 703 702 701 701 701 703 705 708 711 715 719 725 731 737
745 744 744 710 703 707 707 707 708 707 709 710 712 715 717 719 721 721 721 722 720 716 714 712 709 710 708 706 704 700 698 697 699 699 699 700 703 704 707 711 715 720 729 734
746 733 711 702 707 710 711 709 705 707 711 711 717 721 720 719 728 730 730 727 724 718 713 709 706 706 705 703 702 697 695 694 697 699 699 699 701 703 706 707 713 719 724 728
744 737 718 697 703 705 709 713 702 707 718 720 721 721 715 718 724 727 726 726 724 717 714 710 701 703 704 704 703 699 697 697 699 698 698 699 700 703 705 707 711 717 722 725
732 729 709 695 702 711 723 714 715 720 721 722 721 719 717 719 720 720 721 723 722 719 711 706 696 700 702 703 702 700 699 697 697 698 697 699 700 702 704 707 711 716 720 724
725 726 717 697 708 713 707 715 719 720 719 717 717 717 717 715 712 711 712 716 717 715 707 699 693 695 700 701 698 697 696 696 697 697 697 699 699 702 705 708 711 715 718 721
702 698 701 703 703 706 710 713 715 714 712 712 712 712 711 709 707 705 704 711 712 709 701 691 689 693 695 698 697 696 695 696 696 696 698 699 701 703 705 709 712 715 718 721
701 694 696 698 702 705 708 710 711 712 713 713 709 709 706 704 702 699 698 706 707 705 698 688 686 691 694 695 696 697 695 693 695 697 699 702 703 704 706 709 711 714 717 720
700 698 699 701 703 706 707 709 710 711 711 710 708 704 702 699 697 694 692 695 700 700 694 682 684 688 691 693 694 694 695 694 694 696 699 702 704 705 706 708 709 712 715 718
696 699 702 701 702 703 706 707 708 708 707 705 703 700 698 695 692 690 689 687 690 692 689 678 679 684 687 689 692 692 692 694 694 695 698 700 703 705 706 708 710 713 715 718
697 700 702 704 705 705 705 704 704 703 701 700 698 696 696 698 696 695 691 686 684 687 685 680 679 681 683 687 690 690 690 693 694 694 696 699 701 704 705 708 710 713 715 718
699 702 701 701 698 700 702 702 700 698 698 698 699 698 699 702 699 694 688 684 680 680 681 683 683 682 684 687 689 690 691 693 693 693 694 697 699 701 704 706 708 710 714 717
701 701 701 706 708 712 713 708 705 703 702 703 703 704 703 702 701 698 692 691 688 686 683 682 681 685 686 688 690 690 691 692 694 693 694 695 698 699 701 703 706 708 711 715
711 710 709 709 710 712 712 711 711 710 708 706 705 703 701 701 699 697 694 692 691 688 689 689 687 688 688 688 689 690 691 692 693 693 694 695 697 698 699 701 703 706 708 711
712 711 713 709 712 716 716 716 714 711 709 706 704 702 701 700 699 696 694 693 691 690 690 689 689 689 688 688 688 689 690 691 692 693 694 695 696 697 697 699 701 703 705 707
717 719 715 714 713 714 714 715 712 710 708 705 704 703 702 699 696 694 692 692 692 692 691 690 690 689 688 689 689 690 691 691 692 693 694 695 695 696 696 698 699 701 703 705
716 717 714 713 714 714 712 710 708 708 707 706 705 703 700 697 694 691 691 692 692 692 692 691 690 690 690 690 690 690 690 691 692 693 694 695 696 696 696 698 700 701 703 704
718 718 717 715 716 714 711 711 710 708 707 705 704 700 697 695 693 692 692 693 693 692 692 692 692 691 692 691 691 690 691 692 694 695 696 697 697 698 699 700 702 703 704 706
716 717 716 715 714 712 711 710 708 706 705 703 701 698 696 695 694 694 694 692 695 694 693 693 693 693 693 692 692 693 694 695 697 698 699 700 700 701 703 704 705 707 708 709
714 714 714 713 712 709 707 705 704 703 701 700 698 697 695 695 695 694 693 693 695 695 695 694 694 694 694 695 695 696 698 699 700 701 702 703 704 705 707 709 710 712 713 714
710 709 708 708 708 703 702 701 700 699 698 696 695 694 693 692 693 692 693 695 695 697 697 697 696 696 697 698 699 700 702 703 704 705 707 708 708 710 712 714 715 717 718 719
709 709 708 706 704 699 696 695 694 693 693 693 691 691 690 691 693 693 694 695 696 697 698 699 699 699 699 701 703 704 706 707 709 710 712 713 714 716 717 719 720 721 722 723
709 707 705 702 698 694 691 690 690 688 689 689 689 689 689 689 690 693 695 697 698 699 700 701 702 702 703 705 707 708 710 711 713 714 716 717 718 720 721 723 724 725 726 727
705 701 699 698 695 692 689 687 684 682 683 685 687 688 689 691 692 694 696 698 700 701 703 705 705 706 707 709 711 713 714 716 717 719 720 722 723 724 725 726 728 729 730 730
700 698 695 692 691 688 687 686 683 678 677 679 682 686 689 691 693 695 698 700 702 704 706 707 709 710 712 713 715 717 718 720 721 723 724 725 727 727 728 730 731 732 733 733